Regional Weather Roundup
Issued by NWS Wakefield, VA

Home | Current Version | Previous Version | Graphics & Text | Print | Product List | Glossary Off
Versions: 1 2 3 4 5 6 7 8 9 10 11 12 13 14 15 16 17 18 19 20 21 22 23 24 25 26 27 28 29 30 31 32 33 34 35 36 37 38 39 40 41 42 43 44 45 46 47 48 49 50

000
ASUS41 KAKQ 250815
RWRAKQ

REGIONAL WEATHER ROUNDUP
NATIONAL WEATHER SERVICE WAKEFIELD VA
400 AM EDT SAT MAR 25 2017

Note: "fair" indicates few or no clouds below 12,000 feet with no
significant weather and/or obstructions to visibility. * = Denotes
station may not report precipitation (e.g., rain,snow,etc.),
thunder or fog.

VAZ042-051-052>054-056-250900-
NORTHERN VIRGINIA

CITY           SKY/WX    TMP DP  RH WIND       PRES   REMARKS
WASH NATIONAL  MOCLDY    56  48  74 S10       30.14F
DULLES         CLOUDY    57  45  64 S7        30.14F
FORT BELVOIR   CLOUDY    59  46  62 CALM      30.14F
QUANTICO       CLOUDY    55  47  74 S9        30.16F
FREDERICKSBRG* CLOUDY    61  49  65 SW9       30.16F
STAFFORD*      CLOUDY    60  47  61 SW5       30.20S
WARRENTON      CLOUDY    60  44  54 S5        30.14F
CULPEPER*      MOCLDY    59  48  66 CALM      30.15F
MANASSAS*      CLOUDY    53  46  77 S5        30.15F
LEESBURG*      CLOUDY    59  50  72 SW5       30.14F
WINCHESTER     MOCLDY    59  45  58 SW8       30.13F
FRONT ROYAL*     N/A    N/A N/A N/A MISG        N/A
LURAY*         CLOUDY    59  50  72 S8        30.16F
$$

VAZ048-049-060>072-079>083-250900-
CENTRAL AND SOUTH CENTRAL VIRGINIA

CITY           SKY/WX    TMP DP  RH WIND       PRES   REMARKS
RICHMOND       CLOUDY    58  48  69 S12       30.22F
CHESTERFIELD*  FAIR     N/A N/A N/A SW8       30.23F
PETERSBURG*    MOCLDY    57  47  67 SW6       30.25F
HANOVER        CLOUDY    60  45  57 S10       30.22F
TAPPAHANNOCK*  CLOUDY    59  36  41 S7        30.20F
QUINTON*       FAIR      59  48  67 SW8       30.22F
CHARLOTTSVILLE CLOUDY    58  47  66 S8        30.17F
GORDONSVILLE*  CLOUDY    58  47  67 SW9       30.17F
ORANGE*        MOCLDY    59  45  58 SW9       30.17F
LOUISA*        CLOUDY    64  52  63 SW5       30.17F
BUMPASS*       FAIR      60  47  63 SW9G20    30.17F
FARMVILLE*     CLOUDY    58  49  70 S8        30.20F
CREWE*         FAIR      57  48  70 SW7       30.23F
FORT PICKETT*  FAIR      56  44  64 SW7       30.24F
CHASE CITY*    FAIR      57  47  70 S3        30.25F
CLARKSVILLE*   FAIR      55  48  76 S9        30.26F
SOUTH HILL*    CLEAR     55  49  79 S10       30.32F
LAWRENCEVILLE* FAIR      57  48  71 SW8       30.26F
EMPORIA*       PTCLDY    55  46  71 S3        30.29F
$$

VAZ088>098-250900-
SOUTHEAST VIRGINIA

CITY           SKY/WX    TMP DP  RH WIND       PRES   REMARKS
NORFOLK        CLEAR     58  48  69 SW15      30.26F
VIRGINIA BEACH PTCLDY    58  47  66 SW14      30.27F
NORFOLK NAVAL  CLEAR     59  48  67 SW15G21   30.27F
WEST POINT*    PTCLDY    59  46  62 SW9       30.24F
SALUDA*        FAIR      59  49  67 SW8       30.21F
NEWPORT NEWS   CLOUDY    58  49  72 SW16      30.25F
LANGLEY AFB    CLOUDY    60  49  69 SW17      30.24F
FORT EUSTIS    CLOUDY    58  49  69 VRB5      30.23F
WILLIAMSBURG*  CLOUDY    61  50  67 W8        30.25F
HR EXEC AP*    FAIR      57  46  67 SW9G16    30.26F
FRANKLIN*      CLOUDY    57  48  70 SW7       30.29F
US460-WAKEFLD  CLOUDY    58  48  69 SW8       30.26F
$$

VAZ020-022-025-037-045-250900-
WEST CENTRAL AND SOUTHWEST VIRGINIA

CITY           SKY/WX    TMP DP  RH WIND       PRES   REMARKS
STAUNTON*      MOCLDY    56  46  69 SW5       30.20F
WAYNESBORO*    CLOUDY    59  48  66 SW6       30.19F
HOT SPRINGS VA CLOUDY    54  41  62 W14       30.26S
LYNCHBURG      MOCLDY    55  46  71 S7        30.23F
DANVILLE       CLOUDY    56  48  74 SW5       30.26F
SOUTH BOSTON*  FAIR      59  47  62 SW7       30.26F
MARTINSVILLE   CLOUDY    48  44  85 SW5       30.28F
ROANOKE        CLOUDY    59  46  62 SW5       30.25F
BLACKSBURG     CLOUDY    49  46  87 W3        30.29F
DUBLIN*        CLOUDY    51  46  83 W3        30.28S
MARION*        CLOUDY    47  45  93 CALM      30.29F
HILLSVILLE*    CLOUDY    53  46  76 SW12      30.27F
RICHLANDS*     FAIR      57  45  65 CALM      30.26S
WISE*          MOCLDY    55  43  62 CALM      30.25F
ABINGDON*      CLOUDY    54  48  81 CALM      30.25F
$$

MDZ021>025-VAZ099-100-250900-
SOUTHERN MARYLAND AND THE DELMARVA PENINSULA

CITY           SKY/WX    TMP DP  RH WIND       PRES   REMARKS
PATUXENT RIVER PTCLDY    59  50  72 SW13      30.16F
BAY BRIDGE APT PTCLDY    61  46  59 SW9       30.14S
LEONARDTOWN    CLOUDY    59  46  63 SW8       30.18F
DOVER          PTCLDY    58  50  74 S13       30.13S
GEORGETOWN     CLOUDY    60  47  61 SW9       30.17F
EASTON         MOCLDY    58  47  65 SW7       30.19S
CAMBRIDGE      CLEAR     57  48  72 S7        30.16F
SALISBURY      CLOUDY    59  48  67 SW12G23   30.17F
OCEAN CITY     CLOUDY    54  46  74 SW10      30.19F
WALLOPS ISLAND PTCLDY    59  48  67 SW12G20   30.22F
ACCOMACK*      PTCLDY    59  49  67 SW12G17   30.23F
$$

NCZ012>017-030>032-250900-
NORTH CENTRAL AND EASTERN NORTH CAROLINA

CITY           SKY/WX    TMP DP  RH WIND       PRES   REMARKS
ROANOKE RAPIDS FAIR      54  48  82 SW7       30.29F
RALEIGH        CLOUDY    56  49  77 SW7       30.30F
ELIZABETH CITY CLEAR     54  49  83 SW8       30.31F
AHOSKIE*         N/A     53  48  82 CALM      30.31S
EDENTON*       CLEAR     58  50  76 SW7       30.32F
CURRITUCK*     CLEAR     56  49  76 SW7       30.31F
KILL DEVIL HLS NOT AVBL
MANTEO         CLEAR     56  49  79 W8        30.33F
CAPE HATTERAS  CLEAR     61  52  72 W8        30.34F HAZE
TARBORO*       NOT AVBL
GOLDSBORO      CLOUDY    56  53  89 CALM      30.31F
WASHINGTON     PTCLDY    56  49  78 SW7       30.32F
GREENVILLE     PTCLDY    55  50  82 SW7       30.32F
NEW BERN       PTCLDY    52  49  89 S5        30.34F
WILMINGTON     CLOUDY    50  48  93 CALM      30.34F
$$

VAZ048-250900-
ELSEWHERE

CITY           SKY/WX    TMP DP  RH WIND       PRES   REMARKS
HARRISBURG PA  CLOUDY    45  40  82 CALM      30.10F
BALTIMORE      PTCLDY    60  47  61 SW9       30.12F
ANNAPOLIS      PTCLDY    62  47  57 SW5       30.13F
ANDREWS AFB    MOCLDY    59  46  62 SW8       30.13F
PHILADELPHIA   MOCLDY    47  38  71 SW6       30.12F
HENDERSON NC   CLOUDY    54  46  74 SW9       30.28F
GREENSBORO     CLOUDY    58  48  69 SW14      30.27F
ROCKY MOUNT    CLOUDY    55  50  83 S7        30.31F
$$

VAZ100-250900-
MARINE

STATION/POSITION TIME  TEMP    WIND        PRES    WAVE   SWELL
                       AIR SEA DIR/SP/G            HT/PER HT/PER
                 (UTC) (F)     (DEG/KT/KT) (MB)    (FT/S) (FT/S)
CAPE MAY NJ      0748   51 43  230/ 11/ 15 1020.5F
LEWES DE         0748   62 44  240/ 12/ 21 1020.8F
OCEAN-CITY-INLET 0748   47 46  210/ 10/ 11 1022.7F
WACHAPREAGUE VA  0748   57 50  220/  8/ 10 1023.3F
THOMAS POINT MD  0800   60 44  230/  9/ 10   N/A
GOOSES REEF MD   0800   53 44  220/ 10/ 14 1021.5    1/ 2
COVE POINT MD    0748   60     240/ 16/ 21 1021.8F
SOLOMONS ISLAND  0748   57 45  220/ 17/ 20   N/A
BISHOPS HEAD MD  0748   53 47  190/ 13/ 14 1022.2F
PINEY POINT MD   0742          220/ 12/ 13   N/A
POTOMAC MD       0800   54 45  210/ 12/ 12 1021.3    1
CAMBRIDGE MD     0748   56 44  180/  5/  8 1020.6F
LEWISETTA VA     0748   58 48  230/ 13/ 16 1021.9F
RAPPAHANNOCK LGT 0742          200/ 13/ 14 1024.2F
STINGRAY PT      0750   54     220/  8/ 10 1023.6F
YORK RVR RNG VA  0748   58     240/ 21/ 24 1022.9F
YORKTOWN VA      0748   60 48  230/ 11/ 16 1023.5F
JAMESTOWN VA     0800   59 51  220/ 10/ 14   N/A
DOMINION TERM VA 0748   56     220/ 10/ 12 1025.0F
KIPTOPEKE VA     0748      47  210/  9/ 12   N/A
CHES BAY BRIDGE  0748   58 48  230/ 18/ 19 1024.4F
CAPE HENRY VA    0748   60     220/ 12/ 19   N/A
WILLOUBY STN VA  0748   57     220/ 18/ 19 1025.4F
S CRANEY ISL VA  0748   59     220/  7/ 12 1024.9F
CAPE HENRY BUOY  0742      47                N/A     2/ 4
CAPE CHARLES BUO 0751      46                N/A     2/ 5
OFFSHORE WE BUOY 0751      46                N/A     3/ 4
64NM E OF VA BCH 0750   53 51  220/ 14/ 16 1025.8F   3/ 5   2/ 9
DUCK PIER NC     0748   57 47  220/ 12/ 14 1026.1F
44100 DUCK FRF   0735      48                N/A     2/ 8
44056 DUCK FRF   0730      48                N/A     2/ 9
OREGON INLET NC  0742   53 54  200/  8/  8 1026.9F
HATTERAS NC      0748   60 54  240/  7/ 12 1027.0F
DIAMOND SHLS NC  0750   68 76  240/ 17/ 23 1027.3F   5/ 4   2/11
CAPE LOOKOUT NC  0700   65     230/  9/ 12 1027.7F
$$



USA.gov is the U.S. government's official web portal to all federal, state and local government web resources and services.